MINOTAUR 4 DEB, 52037

Orbit data source: Space-Track

MINOTAUR 4 DEB, 52037 is space debris in LEO originally from a launch on Wed, 15 Jul 2020 UTC launched from the Wallops Island (WLPIS). Debris objects in space refer to the collection of defunct objects orbiting the Earth. Examples of debris include non-operational satellites, rocket bodies, and fragments generated from explosions, collisions, or faulty payload assembly.

Loading next visibility...
MINOTAUR 4 DEB details
Identifier
52037, 2020-046AB
Orbit
LEO
Last TLE update10 hours ago
Origin
Flag of USUSSF SSC (US)
ManufacturerNGIS FSG
MissionSpacecraft
Bus & MotorUnknown
MassUnknown
Launch date (UTC)
2020-07-15 (4 years ago)
Launch vehicleUnknown
Launch site
Wallops Island (WLPIS)
Object type
Payload
Rocket body
Debris
Shape & HBRUnknown
Radar Cross SectionSmall (<0.1 m²)

Expand to show TLE details & history

TLE from 10 hours ago
0 MINOTAUR 4 DEB
1 52037U 20046AB  24361.21569651  .00003885  00000-0  31228-3 0  9993
2 52037  53.9805  74.1126 0007613 341.4444  18.6276 15.02156676160951
Epoch: 2024-12-26T05:10Z
Definitive object data (Epoch: 2024-12-26T05:10:36.178Z)
Latitude-0.00005°
Longitude-98.73646°
Altitude556.218 km
Speed7.587 km/s
True Right ascension04h 56m 27s
True Declination0° 00' 00"
Sunlit
Object was in full shadow at TLE epoch
Visualization TLE readout
Latitude34.40762°
Longitude-70.82817°
Altitude560.28 km
Speed7.587 km/s
Apparent Right ascension04h 45m 30s
Apparent Declination-1° 06' 05"
Sunlit
Object is in full shadow
Visualization observer readout
Local Sidereal Time14:19:07
Azimuth310.01° NW
Elevation-38.903°
Doppler factor1
Orbital elements
Apogee altitude565.653 km
Perigee altitude555.088 km
Semi-major axis6,938.507 km
Eccentricity0.0007613
Inclination53.9805°
RAAN74.1126°
Arg. of periapsis341.4444°
True anomaly18.65549°
Mean anomaly18.6276°
Eccentric anomaly18.64154°
Mean motion3.7553 °/min
BSTAR0.00031228
Orbital period95.86 mins
Loading maneuver chart data...
Loading historical data...
Loading historical data...
Loading historical data...
Loading historical data...
Loading historical data...
Loading historical data...
Loading historical data...

MINOTAUR 4 DEB Visibility forecast

Observer location: undefined°, undefined

Span
Click to sort rows by Start time (UTC) header in descending order
Start Az.
Max El. time (UTC)
Max El. Az.
Max El.
End time (UTC)
End Az.
8 mins2024-12-26 15:16:12.202Z304.025° NW2024-12-26 15:20:12.202Z228.272° WSW40.215°2024-12-26 15:24:12.202Z147.409° SSE
6 mins2024-12-27 06:53:12.202Z188.065° SSW2024-12-27 06:56:12.202Z119.928° SE29.291°2024-12-27 06:59:12.202Z67.873° E
6 mins2024-12-27 08:33:12.202Z272.313° WNW2024-12-27 08:35:12.202Z315.022° NNW29.6°2024-12-27 08:39:12.202Z33.77° NE
5 mins2024-12-27 13:36:12.202Z341.02° N2024-12-27 13:38:12.202Z26.472° NE28.66°2024-12-27 13:41:12.202Z89.645° E
|